GS0511 Weather Reports


time (UTC)temp
F
wind
direction
speed
knots
gust
knots
rain 1hr
in
rain 24hr
in
rain mn
in
humidity
%
barometer
mb
20260508162959 49 209 2.6 6.1 0.00 0.08 0.04 71 1013.3
20260508161459 49 294 4.3 7.8 0.00 0.08 0.04 71 1013.6
20260508160004 48 209 3.5 8.7 0.00 0.08 0.04 73 1013.6
20260508154459 47 170 3.5 7.8 0.00 0.08 0.04 72 1013.6
20260508153000 47 225 2.6 4.3 0.00 0.08 0.04 75 1013.7
20260508151459 46 185 2.6 4.3 0.00 0.08 0.04 80 1013.6
20260508150005 45 171 3.5 6.1 0.00 0.08 0.04 81 1013.6
20260508142958 44 165 4.3 7.8 0.00 0.08 0.04 85 1013.4
20260508141458 44 224 3.5 7.8 0.00 0.08 0.04 85 1013.5
20260508140002 43 192 1.7 6.1 0.00 0.08 0.04 85 1013.4
20260508134459 42 261 2.6 5.2 0.00 0.08 0.04 89 1013.7
20260508132958 42 253 1.7 3.5 0.00 0.08 0.04 89 1013.7
20260508131459 42 265 2.6 6.1 0.01 0.08 0.04 89 1013.5
20260508130002 41 207 1.7 4.3 0.02 0.08 0.04 91 1013.6
20260508124459 41 236 0.9 3.5 0.03 0.08 0.04 93 1013.5
20260508122959 40 265 0.9 3.5 0.03 0.08 0.04 92 1013.5
20260508121459 41 267 3.5 10.4 0.02 0.07 0.03 93 1013.6
20260508114459 41 261 0.9 2.6 0.00 0.05 0.01 97 1012.8
20260508112958 40 213 0.0 0.0 0.00 0.05 0.01 97 1012.4
20260508111458 40 213 0.0 1.7 0.00 0.05 0.01 97 1012.2
20260508110001 40 213 0.0 1.7 0.00 0.05 0.01 97 1012.1
20260508104459 39 213 0.0 0.0 0.00 0.05 0.01 97 1011.8
20260508102959 39 213 0.0 0.0 0.00 0.05 0.01 96 1011.9
20260508101458 39 213 0.0 0.0 0.00 0.05 0.01 96 1011.8
20260508100003 39 213 0.0 1.7 0.00 0.05 0.01 96 1011.9
20260508094458 39 213 0.0 0.0 0.00 0.05 0.01 96 1012.1
20260508092959 38 213 0.0 0.0 0.00 0.05 0.01 97 1012.2
20260508091458 38 213 0.0 0.0 0.00 0.05 0.01 96 1012.4
20260508090005 38 213 0.0 0.0 0.00 0.05 0.01 96 1012.4
20260508084458 37 213 0.0 0.0 0.00 0.05 0.01 96 1012.4
20260508082959 37 213 0.0 0.0 0.00 0.05 0.01 95 1012.4
20260508081458 37 213 0.0 0.0 0.00 0.05 0.01 95 1012.3
20260508080001 37 213 0.0 0.0 0.00 0.05 0.01 95 1012.3
20260508074458 37 213 0.0 0.0 0.00 0.05 0.01 94 1012.3
20260508072959 38 213 0.0 0.0 0.00 0.05 0.01 94 1012.3
20260508064457 39 213 0.0 0.9 0.00 0.05 0.01 93 1012.5
20260508061457 40 213 0.0 0.9 0.00 0.05 0.01 93 1012.5
20260508060001 41 213 0.0 0.9 0.00 0.05 0.01 93 1012.6
20260508054457 41 224 0.9 2.6 0.00 0.05 0.01 93 1012.6
20260508052958 42 221 0.9 3.5 0.01 0.05 0.01 93 1012.8
20260508051457 42 225 0.9 1.7 0.01 0.05 0.01 94 1012.8
20260508050004 42 225 0.0 1.7 0.01 0.05 0.01 93 1012.7
20260508044457 42 236 0.0 1.7 0.01 0.05 0.01 93 1012.8
20260508042957 42 236 0.0 0.0 0.01 0.04 0.00 93 1012.7
20260508041458 42 236 0.9 1.7 0.03 0.04 0.00 92 1012.6
20260508040006 43 236 0.9 2.6 0.03 0.04 0.00 92 1012.6
20260508034501 43 263 0.9 3.5 0.04 0.04 0.04 91 1012.7
20260508033002 43 275 0.9 2.6 0.03 0.03 0.03 91 1012.6
20260508031501 43 238 0.9 3.5 0.01 0.01 0.01 89 1012.8
20260508030007 43 313 1.7 6.1 0.01 0.01 0.01 87 1012.7
20260508024500 44 260 0.9 2.6 0.00 0.00 0.00 86 1012.8
20260508023000 44 277 0.9 2.6 0.00 0.00 0.00 84 1012.7
20260508021500 44 298 1.7 3.5 0.00 0.00 0.00 83 1012.8
20260508020004 45 279 1.7 3.5 0.00 0.00 0.00 82 1012.6
20260508014500 45 277 1.7 2.6 0.00 0.00 0.00 80 1012.5
20260508013000 45 296 1.7 3.5 0.00 0.00 0.00 79 1012.4
20260508010005 46 305 1.7 5.2 0.00 0.00 0.00 73 1012.1
20260508004500 46 274 0.0 2.6 0.00 0.00 0.00 73 1011.7
20260508003001 47 275 0.0 0.0 0.00 0.00 0.00 75 1011.5
20260508001500 47 333 0.0 0.0 0.00 0.00 0.00 71 1011.5
20260507234500 49 333 0.0 0.0 0.00 0.05 0.00 66 1011.3
20260507233000 49 333 0.9 2.6 0.00 0.05 0.00 61 1011.1
20260507231500 49 333 1.7 2.6 0.00 0.05 0.00 61 1011.2
20260507221500 50 323 0.9 4.3 0.00 0.13 0.00 60 1011.3
20260507220009 50 331 1.7 2.6 0.00 0.13 0.00 60 1011.4
20260507214500 50 19 1.7 4.3 0.00 0.13 0.00 60 1011.3
20260507213000 51 328 1.7 4.3 0.00 0.13 0.00 59 1011.3
20260507211500 52 39 1.7 4.3 0.00 0.13 0.00 59 1011.2
20260507210005 51 286 1.7 3.5 0.00 0.13 0.00 59 1011.2
20260507204501 51 86 1.7 4.3 0.00 0.13 0.00 62 1011.2
20260507203000 51 40 0.9 3.5 0.00 0.13 0.00 66 1011.2
20260507200004 51 28 1.7 4.3 0.00 0.13 0.00 65 1011.3
20260507193000 51 336 2.6 4.3 0.00 0.13 0.00 65 1011.7
20260507190005 51 11 3.5 7.8 0.00 0.13 0.00 66 1011.6
20260507184500 52 310 2.6 7.0 0.00 0.13 0.00 55 1011.7
20260507183000 53 299 2.6 6.1 0.00 0.13 0.00 57 1011.8
20260507181500 53 277 3.5 8.7 0.00 0.13 0.00 57 1011.7
20260507180004 54 360 2.6 7.8 0.00 0.13 0.00 54 1011.9
20260507174500 54 284 3.5 11.3 0.00 0.14 0.00 59 1011.9
20260507172959 53 291 2.6 10.4 0.00 0.14 0.00 60 1011.9
20260507164459 52 248 4.3 11.3 0.00 0.14 0.00 60 1012.5